Flag for U.S.A. Weather past 2 weeks in Sioux Falls, South Dakota, U.S.A.

Now
59 °F

Mostly cloudy.


Feels Like: 57 °F
Forecast: 56 / 62 °F
Wind: 10 mph from South

Location: Foss Field

Current Time: Sep 23, 2014 at 8:00:51 AM

Latest Report: Sep 23, 2014 at 6:56 AM


Visibility: 10 mi

Pressure: 30.11 "Hg

Humidity: 78%

Dew point: 52 °F

Location of Sioux FallsLocation

Historic Weather in Sioux Falls — Graph

°F

Sioux Falls temperature yesterday

Maximum temperature yesterday: 73 °F (at 3:56 PM)
Minimum temperature yesterday: 44 °F (at 6:56 AM)
Average temperature yesterday: 59 °F

Past Weeks' High & Low Weather Summary

 TemperatureHumidityPressure
High88 °F (Sep 19, 3:56 PM)100% (Sep 14, 7:56 AM)30.50 "Hg (Sep 14, 7:56 AM)
Low38 °F (Sep 12, 11:56 PM)32% (Sep 20, 4:56 PM)29.65 "Hg (Sep 9, 5:56 PM)
Average59 °F73%30.06 "Hg
* Reported Sep 8 6:56 AM — Sep 23 6:56 AM, Sioux Falls, Weather by CustomWeather, © 2014

Note: Actual official high and low records may vary slightly from our data, if they occured in-between our weather recording intervals... More about our weather records

Advertising

Sioux Falls weather history for previous 24 hours

 ConditionsComfort  
Time TempWeatherWind HumidityBarometerVisibility
6:56 AM
Sep 23
59 °FMostly cloudy.10 mph78%30.11 "Hg10 mi
5:56 AM59 °FOvercast.8 mph78%30.10 "Hg10 mi
4:56 AM60 °FOvercast.8 mph69%30.10 "Hg10 mi
3:56 AM60 °FOvercast.8 mph69%30.09 "Hg10 mi
2:56 AM60 °FOvercast.9 mph69%30.10 "Hg10 mi
1:56 AM60 °FPassing clouds.12 mph67%30.11 "Hg10 mi
12:56 AM62 °FClear.12 mph62%30.11 "Hg10 mi
11:56 PM
Sep 22
61 °FPassing clouds.12 mph65%30.13 "Hg10 mi
10:56 PM61 °FPassing clouds.9 mph65%30.14 "Hg10 mi
9:56 PM63 °FPassing clouds.12 mph63%30.14 "Hg10 mi
8:56 PM64 °FPassing clouds.12 mph58%30.14 "Hg10 mi
7:56 PM66 °FPartly sunny.10 mph54%30.14 "Hg10 mi
6:56 PM68 °FPartly sunny.10 mph49%30.14 "Hg10 mi
5:56 PM72 °FPartly sunny.12 mph41%30.14 "Hg10 mi
4:56 PM72 °FPartly sunny.8 mph41%30.15 "Hg10 mi
3:56 PM73 °FPartly sunny.10 mph40%30.17 "Hg10 mi
2:56 PM72 °FPartly sunny.12 mph38%30.19 "Hg10 mi
1:56 PM71 °FPartly sunny.13 mph42%30.22 "Hg10 mi
12:56 PM70 °FPartly sunny.10 mph44%30.24 "Hg10 mi
11:56 AM68 °FScattered clouds.9 mph47%30.25 "Hg10 mi
10:56 AM65 °FScattered clouds.5 mph56%30.28 "Hg10 mi
9:56 AM60 °FPassing clouds.6 mph67%30.29 "Hg10 mi
8:56 AM54 °FPassing clouds.No wind83%30.28 "Hg10 mi
Weather by CustomWeather, © 2014

See weather overviewHow to use our weather pages